Regional Weather Roundup
Issued by NWS

Home | Current Version | Previous Version | Graphics & Text | Print | Product List | Glossary On
Versions: 1 2 3 4 5 6 7 8 9 10 11 12 13 14 15 16 17 18 19 20 21 22 23 24 25 26 27 28 29 30 31 32 33 34 35 36 37 38 39 40 41 42 43 44 45 46 47 48 49 50
000
ASUS43 KIND 301909
RWRIN

WEATHER ROUNDUP FOR INDIANA
NATIONAL WEATHER SERVICE INDIANAPOLIS IN
200 PM EST FRI JAN 30 2015

NOTE: "FAIR" INDICATES FEW OR NO CLOUDS BELOW 12,000 FEET WITH NO
SIGNIFICANT WEATHER AND/OR OBSTRUCTIONS TO VISIBILITY.

* - STATION DOES NOT REPORT WEATHER SUCH AS PRECIPITATION OR FOG.

+ - STATION NOT QUALITY CONTROLLED BY THE NATIONAL WEATHER SERVICE.
    USE DATA WITH CAUTION...ESPECIALLY DEWPOINT AND RELATIVE
    HUMIDITY OBSERVATIONS.

INZ001>003-010>013-019-020-302000-
NORTHWEST INDIANA

CITY           SKY/WX    TMP DP  RH WIND       PRES   REMARKS
GARY /AIRPORT/ MOSUNNY   30  12  47 N12       30.49F WCI  21
KNOX *+        CLOUDY    28   1  31 N8        30.46F WCI  20
LA PORTE +     CLOUDY    28  17  63 NW7G17    30.47F WCI  21
MICHIGAN CITY+ CLOUDY    28  10  47 N7        30.48F WCI  21
MONTICELLO +   CLOUDY    29  19  67 NW8       30.47F WCI  21
RENSSELAER +   PTSUNNY   30  21  69 N7        30.48F WCI  23
VALPARAISO     CLOUDY    27  14  58 VRB5      30.47F WCI  22

$$

LMZ046-743>745-302000-
SOUTHERN LAKE MICHIGAN

STATION/POSITION TIME  TEMP WIND        PRES
                       AIR  DIR/SP/G
                 (UTC) (F)  (DEG/KT/KT) (MB)
MICHIGAN CITY    1900   25  330/ 11/ 14   N/A

$$

INZ004-005-014>016-021>024-302000-
NORTH CENTRAL INDIANA

CITY           SKY/WX    TMP DP  RH WIND       PRES   REMARKS
ELKHART        FLURRIES  25  10  54 NW8       30.47F WCI  16
GOSHEN         CLOUDY    24  14  65 NW14      30.45F WCI  12
LOGANSPORT +   CLOUDY    28  18  64 N8        30.47F WCI  20
PERU/GRISSOM   PTSUNNY   28  15  60 NW8       30.45F WCI  20
ROCHESTER +    CLOUDY    30  21  69 CALM      30.47F
SOUTH BEND     CLOUDY    26  16  65 N8        30.47F WCI  18
WARSAW +       FLURRIES  27  16  63 NW9       30.46F WCI  17

$$

INZ006>009-017-018-025>027-302000-
NORTHEAST INDIANA

CITY           SKY/WX    TMP DP  RH WIND       PRES   REMARKS
ANGOLA *+      MOSUNNY   21   9  58 NW8       30.42F WCI  12
AUBURN +       CLOUDY    27  12  54 NW8       30.45S WCI  18
FORT WAYNE     PTSUNNY   24  11  57 NW9       30.45F WCI  14
HUNTINGTON +   CLOUDY    26  10  51 NW8       30.45F WCI  18

$$

INZ028-029-035-036-043>045-051>053-302000-
WEST CENTRAL INDIANA

CITY           SKY/WX    TMP DP  RH WIND       PRES   REMARKS
GREENCASTLE +  SUNNY     32  10  40 N8        30.46F WCI  25
LAFAYETTE      PTSUNNY   29  16  58 NW6       30.48F WCI  23
TERRE HAUTE    SUNNY     34  15  46 NE6       30.47F WCI  29

$$

INZ030>032-037>040-046>048-054>057-064-065-302000-
CENTRAL INDIANA

CITY           SKY/WX    TMP DP  RH WIND       PRES   REMARKS
ANDERSON       CLOUDY    27  16  63 N12G23    30.46F WCI  16
CP ATTERBURY + MOSUNNY   32  18  55 N8        30.47F WCI  25
COLUMBUS       MOSUNNY   30  14  51 W8        30.47F WCI  23
FRANKFORT +    CLOUDY    29  19  64 NW7       30.47  WCI  22
GREENWOOD *+   PTSUNNY   30  12  47 N9        30.46F WCI  22
INDIANAPOLIS   PTSUNNY   29  15  56 N12       30.45F WCI  19
-EAGLE CREEK   PTSUNNY   31  15  52 N9        30.45F WCI  23
KOKOMO *+      CLOUDY    28  16  59 NW12      30.46F WCI  18
MARION +       CLOUDY    25  15  65 N7        30.46F WCI  18
MT COMFORT *+  MOSUNNY   30   7  37 N10       30.46S WCI  21
SHELBYVILLE    PTSUNNY   32  17  54 N13       30.45F WCI  22
ZIONSVILLE +   PTSUNNY   31  16  54 N8        30.45F WCI  23

$$

INZ033-034-041-042-049-050-058-059-302000-
EAST CENTRAL INDIANA

CITY           SKY/WX    TMP DP  RH WIND       PRES   REMARKS
MUNCIE         PTSUNNY   27  16  63 NW10      30.45F WCI  17

$$

INZ060-061-067>069-081>083-085>088-302000-
SOUTHWEST INDIANA

CITY           SKY/WX    TMP DP  RH WIND       PRES   REMARKS
EVANSVILLE     SUNNY     39  22  50 VRB7      30.48F
HUNTINGBURG *+ SUNNY     37  21  52 NW12      30.47F
WASHINGTON +   SUNNY     35  17  48 N9        30.47F WCI  28

$$

INZ062-063-066-070>080-084-089>092-302000-
SOUTH CENTRAL AND SOUTHEAST INDIANA

CITY           SKY/WX    TMP DP  RH WIND       PRES   REMARKS
BLOOMINGTON    SUNNY     33  15  47 CALM      30.45F
NORTH VERNON + PTSUNNY   32  16  51 N10G16    30.46F WCI  24
SEYMOUR +      SUNNY     36  16  44 N7        30.47F

$$



USA.gov is the U.S. government's official web portal to all federal, state and local government web resources and services.